DECAYED

CZ-6A DEB, 54906 (Decayed)

Orbit data source: Space-Track

CZ-6A DEB, 54906 was space debris in SSO originally from a launch on Fri, 11 Nov 2022 UTC launched from the Taiyaun Space Center, China (TSC). Debris objects in space refer to the collection of defunct objects orbiting the Earth. Examples of debris include non-operational satellites, rocket bodies, and fragments generated from explosions, collisions, or faulty payload assembly.

Not visible in the next 10 days
Identifier
54906, 2022-151QT
Orbit
Decayed
Country
Flag of CNCN / PRC
Related business
Manufacturer
SAST
Mission
Decayed spacecraft
Bus & Motor
Unknown
Mass
Unknown
Launch date (UTC)
2022-11-11 (4 years ago)
Launch vehicle
Unknown
Launch site
Taiyaun Space Center, China (TSC)
Object type
Payload
Rocket body
Debris
Shape & HBR
Unknown shape, 0.1 m
Radar Cross Section
Medium (>0.1 m² and <1 m²)

Expand to show TLE details & history
Last TLE update: 1 year ago

TLE from 1 year ago
0 CZ-6A DEB
1 54906U 22151QT  25140.82195539  .03819635  17700-1  19467-1 0  9998
2 54906  98.9539 239.3401 0029470 293.2939  66.5225 15.85096814133741
Epoch: 2025-05-20T19:43Z
TLE epoch observation values (Epoch: 2025-05-20T19:43:36.945Z)
Latitude
-0.00005°
Longitude
64.72146°
Altitude
311.368 km
Speed
7.726 km/s
True Right ascension
15h 57m 21s
True Declination
0° 00' 00"
Sunlit
Object was in full shadow at epoch
Visualization orbit readout
Latitude
Unknown
Longitude
Unknown
Altitude
Unknown
Speed
Unknown
Apparent Right ascension
Unknown
Apparent Declination
Unknown
Sunlit
N/A
Visualization observer readout
Local Sidereal Time
21:45:58
Azimuth
Unknown
Elevation
Unknown
Doppler factor
Unknown
Orbital elements
Apogee altitude
332.726 km
Perigee altitude
293.288 km
Semi-major axis
6,691.144 km
Eccentricity
0.00295
Inclination
98.9539°
RAAN
239.3401°
Arg. of periapsis
293.2939°
True anomaly
66.8327°
Mean anomaly
66.5225°
Eccentric anomaly
66.67755°
Mean motion
3.96545 °/min
Orbital period
90.78 mins
BSTAR
0.019467
Loading maneuver chart data...
Computing Atmospheric mass density...

Documentation

Showing up to 5 results
|